Farmington, NM

7:08 AM MDT on June 28, 2017 (GMT -0600)
Four Corners Regional

Weather History for KFMN - January, 2013

Change the Weather History Date:

Thursday, January 24, 2013

  Actual Average Record
Temperature  
Mean Temperature 39 °F -  
Max Temperature 51 °F 43 °F 58 °F (1986)
Min Temperature 27 °F 21 °F 3 °F (2002)
Degree Days  
Heating Degree Days 26    
Moisture  
Dew Point 21 °F    
Average Humidity 53    
Maximum Humidity 75    
Minimum Humidity 17    
Precipitation  
Precipitation 0.00 in - - ()
Sea Level Pressure  
Sea Level Pressure 30.35 in    
Wind  
Wind Speed 6 mph (SE)    
Max Wind Speed 9 mph    
Max Gust Speed -    
Visibility 10 miles    
Events      
Averages and records for this station are not official NWS values.
T = Trace of Precipitation, MM = Missing Value Source: NWS Daily Summary

Daily Weather History Graph

Daily Weather History Graph

Search for Another Location

Airport or City:

Trip Planner

Search our weather history database for the weather conditions in past years. The results will help you decide how hot, cold, wet, or windy it might be!

Date:

Astronomy

Jan. 24, 2013 Rise Set
Actual Time 7:20 AM MST 5:30 PM MST
Civil Twilight 6:52 AM MST 5:57 PM MST
Nautical Twilight 6:21 AM MST 6:29 PM MST
Astronomical Twilight 5:50 AM MST 7:00 PM MST
Moon 3:35 PM MST (1/24) 5:19 AM MST (1/24)
Length of Visible Light 11h 05m
Length of Day
10h 09m
Waxing Gibbous, 95% of the Moon is Illuminated
Jan 24
Waxing Gibbous
Jan 26
Full
Feb 3
Last Quarter
Feb 10
New
Feb 17
First Quarter

Hourly Weather History & Observations

Time (MST) Temp. Windchill Dew Point Humidity Pressure Visibility Wind Dir Wind Speed Gust Speed Precip Events Conditions
12:53 AM 28.9 °F 22.8 °F 21.0 °F 72% 30.39 in 10.0 mi ENE 5.8 mph - N/A   Clear
1:53 AM 28.9 °F 23.9 °F 21.0 °F 72% 30.39 in 10.0 mi East 4.6 mph - N/A   Clear
2:53 AM 28.0 °F 20.8 °F 21.0 °F 75% 30.38 in 10.0 mi East 6.9 mph - N/A   Clear
3:53 AM 28.0 °F 20.0 °F 19.9 °F 72% 30.35 in 10.0 mi East 8.1 mph - N/A   Clear
4:53 AM 28.0 °F 20.8 °F 19.9 °F 72% 30.38 in 10.0 mi ESE 6.9 mph - N/A   Clear
5:53 AM 27.0 °F 18.7 °F 19.0 °F 72% 30.38 in 10.0 mi East 8.1 mph - N/A   Clear
6:53 AM 27.0 °F 19.5 °F 19.0 °F 72% 30.41 in 10.0 mi ESE 6.9 mph - N/A   Clear
7:53 AM 28.0 °F 20.0 °F 19.0 °F 69% 30.42 in 10.0 mi East 8.1 mph - N/A   Clear
8:53 AM 30.9 °F 22.8 °F 19.9 °F 64% 30.42 in 10.0 mi ESE 9.2 mph - N/A   Partly Cloudy
9:53 AM 34.0 °F 28.8 °F 19.9 °F 56% 30.42 in 10.0 mi SE 5.8 mph - N/A   Mostly Cloudy
10:53 AM 39.0 °F 34.8 °F 19.9 °F 46% 30.39 in 10.0 mi ESE 5.8 mph - N/A   Partly Cloudy
11:53 AM 46.0 °F - 19.0 °F 34% 30.34 in 10.0 mi Calm Calm - N/A   Scattered Clouds
12:53 PM 48.0 °F - 18.0 °F 30% 30.29 in 10.0 mi ESE 3.5 mph - N/A   Clear
1:53 PM 48.9 °F - 18.0 °F 29% 30.27 in 10.0 mi Calm Calm - N/A   Overcast
2:53 PM 50.0 °F - 19.0 °F 29% 30.27 in 10.0 mi West 4.6 mph - N/A   Overcast
3:53 PM 46.9 °F - 21.0 °F 36% 30.29 in 10.0 mi WNW 5.8 mph - N/A   Overcast
4:53 PM 45.0 °F 40.6 °F 23.0 °F 42% 30.29 in 10.0 mi WSW 8.1 mph - N/A   Overcast
5:53 PM 42.1 °F 38.4 °F 23.0 °F 47% 30.31 in 10.0 mi WSW 5.8 mph - N/A   Overcast
6:53 PM 43.0 °F 40.3 °F 23.0 °F 45% 30.34 in 10.0 mi WSW 4.6 mph - N/A   Overcast
7:53 PM 39.9 °F 35.1 °F 27.0 °F 60% 30.34 in 10.0 mi West 6.9 mph - 0.00 in   Overcast
8:53 PM 39.0 °F 32.8 °F 25.0 °F 57% 30.33 in 10.0 mi West 9.2 mph - N/A   Overcast
9:53 PM 37.9 °F - 25.0 °F 60% 30.32 in 10.0 mi Calm Calm - N/A   Overcast
10:53 PM 37.9 °F - 26.1 °F 62% 30.33 in 10.0 mi Calm Calm - N/A   Overcast
11:53 PM 37.0 °F 34.5 °F 26.1 °F 65% 30.32 in 10.0 mi West 3.5 mph - N/A   Overcast